Weather History for Mountain Home, AR

Change the Weather History Date:

Thursday, May 2, 2013

  Actual Average (KHRO) Record (KHRO)
Temperature  
Mean Temperature 52 °F 62 °F  
Max Temperature 64 °F 73 °F 91 °F (1943)
Min Temperature 39 °F 52 °F 26 °F (1911)
Degree Days  
Heating Degree Days 12 4  
Month to date heating degree days 8  
Since 1 July heating degree days 3929  
Cooling Degree Days 0 2  
Month to date cooling degree days 4  
Year to date cooling degree days 41  
Growing Degree Days 2 (Base 50)    
Moisture  
Dew Point 52 °F    
Average Humidity 93    
Maximum Humidity 100    
Minimum Humidity 87    
Precipitation  
Precipitation 0.48 in 0.16 in 3.13 in (1990)
Month to date precipitation 0.33  
Year to date precipitation 13.64  
Snow  
Snow 0.00 in 0.00 in - ()
Month to date snowfall 0.0  
Since 1 July snowfall 11.5  
Snow Depth -    
Sea Level Pressure  
Sea Level Pressure 30.11 in    
Wind  
Wind Speed 3 mph (NW)    
Max Wind Speed 8 mph    
Max Gust Speed -    
Visibility 5 miles    
Events Rain    
T = Trace of Precipitation, MM = Missing Value Source: NWS Daily Summary

Daily Weather History Graph

Daily Weather History Graph

Search for Another Location

Airport:

Trip Planner

Search our weather history database for the weather conditions in past years. The results will help you decide how hot, cold, wet, or windy it might be!

Date:

Astronomy

May. 02, 2013 Rise Set
Actual Time 6:15 AM CDT 7:58 PM CDT
Civil Twilight 5:47 AM CDT 8:26 PM CDT
Nautical Twilight 5:14 AM CDT 9:00 PM CDT
Astronomical Twilight 4:38 AM CDT 9:35 PM CDT
Moon 1:50 AM CDT (5/2) 1:00 PM CDT (5/2)
Length of Visible Light 14h 39m
Length of Day
13h 43m
Waning Gibbous, 47% of the Moon is Illuminated
May 2
Waning Gibbous
May 9
New
May 17
First Quarter
May 24
Full
May 31
Last Quarter

Hourly Weather History & Observations

Time (CDT) Temp. Windchill Dew Point Humidity Pressure Visibility Wind Dir Wind Speed Gust Speed Precip Events Conditions
12:53 AM 62.1 °F - 60.1 °F 93% 30.05 in 9.0 mi Calm Calm - N/A   Mostly Cloudy
1:53 AM 60.1 °F - 57.9 °F 93% 30.04 in 7.0 mi Calm Calm - N/A   Clear
2:53 AM 59.0 °F - 57.9 °F 96% 30.02 in 6.0 mi Calm Calm - N/A   Clear
3:53 AM 57.9 °F - 57.0 °F 97% 30.04 in 4.0 mi Calm Calm - N/A   Clear
4:53 AM 59.0 °F - 57.9 °F 96% 30.06 in 5.0 mi Calm Calm - N/A   Mostly Cloudy
5:53 AM 59.0 °F - 57.9 °F 96% 30.06 in 5.0 mi Calm Calm - N/A   Overcast
6:53 AM 60.1 °F - 59.0 °F 96% 30.08 in 5.0 mi Calm Calm - N/A   Overcast
7:53 AM 62.1 °F - 60.1 °F 93% 30.09 in 6.0 mi Calm Calm - N/A   Overcast
8:32 AM 62.6 °F - 60.8 °F 94% 30.13 in 5.0 mi Calm Calm - N/A   Overcast
8:53 AM 63.0 °F - 61.0 °F 93% 30.11 in 6.0 mi Variable 3.5 mph - N/A   Overcast
9:53 AM 64.0 °F - 60.1 °F 87% 30.11 in 6.0 mi NW 4.6 mph - N/A   Overcast
10:41 AM 62.6 °F - 59.0 °F 88% 30.12 in 6.0 mi West 3.5 mph - 0.00 in Rain Light Rain
10:53 AM 61.0 °F - 57.9 °F 90% 30.11 in 6.0 mi Variable 4.6 mph - 0.00 in Rain Light Rain
11:25 AM 60.8 °F - 57.2 °F 88% 30.13 in 2.5 mi WNW 4.6 mph - 0.03 in Rain Light Rain
11:53 AM 59.0 °F - 57.0 °F 93% 30.12 in 4.0 mi Variable 5.8 mph - 0.04 in Rain Light Rain
12:53 PM 57.0 °F - 54.0 °F 89% 30.13 in 5.0 mi NW 8.1 mph - 0.01 in Rain Light Rain
1:04 PM 57.2 °F - 55.4 °F 94% 30.14 in 4.0 mi NW 8.1 mph - 0.01 in Rain Light Rain
1:16 PM 57.2 °F - 55.4 °F 94% 30.13 in 4.0 mi Variable 3.5 mph - 0.02 in Rain Light Rain
1:53 PM 55.0 °F - 53.1 °F 93% 30.12 in 5.0 mi Variable 4.6 mph - 0.02 in Rain Light Rain
2:53 PM 52.0 °F - 52.0 °F 100% 30.13 in 3.0 mi Variable 5.8 mph - 0.03 in Rain Light Rain
3:53 PM 51.1 °F - 48.9 °F 92% 30.12 in 3.0 mi NNW 6.9 mph - 0.05 in Rain Light Rain
4:04 PM 50.0 °F - 48.2 °F 94% 30.13 in 2.5 mi NW 5.8 mph - 0.01 in Rain Light Rain
4:28 PM 50.0 °F - 48.2 °F 94% 30.13 in 4.0 mi Variable 5.8 mph - 0.04 in Rain Light Rain
4:53 PM 50.0 °F - 48.0 °F 93% 30.12 in 4.0 mi NW 5.8 mph - 0.05 in Rain Light Rain
5:53 PM 48.0 °F - 46.0 °F 93% 30.13 in 6.0 mi NNW 3.5 mph - 0.04 in Rain Light Rain
6:53 PM 46.9 °F - 46.0 °F 97% 30.13 in 9.0 mi Variable 5.8 mph - 0.00 in   Overcast
7:53 PM 46.0 °F 43.9 °F 44.1 °F 93% 30.14 in 5.0 mi Variable 4.6 mph - 0.01 in Rain Light Rain
8:53 PM 44.1 °F 40.1 °F 42.1 °F 93% 30.15 in 5.0 mi NW 6.9 mph - 0.04 in Rain Light Rain
9:53 PM 42.1 °F 37.1 °F 39.9 °F 92% 30.16 in 10.0 mi NNW 8.1 mph - 0.05 in   Overcast
10:02 PM 42.8 °F 38.0 °F 39.2 °F 87% 30.16 in 10.0 mi NW 8.1 mph - N/A   Overcast
10:26 PM 42.8 °F 38.0 °F 41.0 °F 93% 30.16 in 3.0 mi NW 8.1 mph - 0.04 in Rain Rain
10:53 PM 41.0 °F 38.0 °F 39.9 °F 96% 30.14 in 4.0 mi Variable 4.6 mph - 0.10 in Rain Light Rain
11:17 PM 41.0 °F 36.4 °F 39.2 °F 93% 30.14 in 5.0 mi Variable 6.9 mph - 0.02 in Rain Light Rain
11:53 PM 39.9 °F 34.5 °F 39.0 °F 97% 30.14 in 4.0 mi NW 8.1 mph - 0.04 in Rain Light Rain